Weather History for KCDJ - January, 2013

Change the Weather History Date:

Monday, January 28, 2013

  Actual Average (KIRK) Record (KIRK)
Temperature  
Mean Temperature 58 °F 26 °F  
Max Temperature 72 °F 36 °F - ()
Min Temperature 45 °F 17 °F - ()
Degree Days  
Heating Degree Days 6 39  
Month to date heating degree days 1092  
Since 1 July heating degree days 3435  
Cooling Degree Days 0 0  
Month to date cooling degree days 0  
Year to date cooling degree days 0  
Growing Degree Days 8 (Base 50)    
Moisture  
Dew Point 52 °F    
Average Humidity 83    
Maximum Humidity 97    
Minimum Humidity 55    
Precipitation  
Precipitation 0.02 in 0.06 in - ()
Month to date precipitation 1.08  
Year to date precipitation 1.08  
Sea Level Pressure  
Sea Level Pressure 29.80 in    
Wind  
Wind Speed 5 mph (SSE)    
Max Wind Speed 15 mph    
Max Gust Speed 22 mph    
T = Trace of Precipitation, MM = Missing Value Source: NWS Daily Summary

Daily Weather History Graph

Daily Weather History Graph

Search for Another Location

Airport or City:

Trip Planner

Search our weather history database for the weather conditions in past years. The results will help you decide how hot, cold, wet, or windy it might be!

Date:

Astronomy

Jan. 28, 2013 Rise Set
Actual Time 7:25 AM CST 5:29 PM CST
Civil Twilight 6:56 AM CST 5:58 PM CST
Nautical Twilight 6:24 AM CST 6:30 PM CST
Astronomical Twilight 5:52 AM CST 7:02 PM CST
Moon 7:24 PM CST (1/28) 7:51 AM CST (1/28)
Length of Visible Light 11h 01m
Length of Day
10h 03m
Full, 98% of the Moon is Illuminated
Jan 28
Full
Feb 3
Last Quarter
Feb 10
New
Feb 17
First Quarter
Feb 25
Full

Hourly Weather History & Observations

Time (CST) Temp. Dew Point Humidity Pressure Visibility Wind Dir Wind Speed Gust Speed Precip Events Conditions
12:52 AM 57.0 °F 52.0 °F 83% 29.83 in - South 6.9 mph - N/A   Unknown
1:52 AM 55.9 °F 54.0 °F 93% 29.84 in - SW 3.5 mph - N/A   Unknown
2:52 AM 54.0 °F 53.1 °F 97% 29.86 in - North - - 0.02 in   Unknown
3:52 AM 48.0 °F 46.9 °F 96% 29.87 in - Calm Calm - N/A   Unknown
4:52 AM 46.9 °F 46.0 °F 97% 29.88 in - Calm Calm - N/A   Unknown
5:52 AM 46.0 °F 45.0 °F 96% 29.88 in - Calm Calm - N/A   Unknown
6:52 AM 45.0 °F 44.1 °F 97% 29.90 in - Calm Calm - N/A   Unknown
7:52 AM 45.0 °F 44.1 °F 97% 29.91 in - Calm Calm - N/A   Unknown
8:52 AM 46.0 °F 45.0 °F 96% 29.91 in - Calm Calm - N/A   Unknown
9:52 AM 48.0 °F 46.9 °F 96% 29.90 in - Calm Calm - N/A   Unknown
10:52 AM 50.0 °F 48.9 °F 96% 29.89 in - East 3.5 mph - N/A   Unknown
11:52 AM 55.9 °F 53.1 °F 90% 29.86 in - ESE 5.8 mph - N/A   Unknown
12:52 PM 62.1 °F 55.9 °F 80% 29.81 in - Variable 5.8 mph - N/A   Unknown
1:52 PM 66.0 °F 57.0 °F 73% 29.77 in - SSE 8.1 mph - N/A   Unknown
2:52 PM 70.0 °F 57.9 °F 65% 29.74 in - South 8.1 mph 17.3 mph N/A   Unknown
3:52 PM 72.0 °F 55.0 °F 55% 29.73 in - South 13.8 mph 21.9 mph N/A   Unknown
4:52 PM 69.1 °F 55.9 °F 63% 29.73 in - South 10.4 mph - N/A   Unknown
5:52 PM 68.0 °F 57.0 °F 68% 29.72 in - South 11.5 mph - N/A   Unknown
6:52 PM 66.0 °F 57.0 °F 73% 29.72 in - SSE 9.2 mph - N/A   Unknown
7:52 PM 64.0 °F 57.0 °F 78% 29.72 in - SSE 8.1 mph - N/A   Unknown
8:52 PM 63.0 °F 55.9 °F 78% 29.71 in - SSE 10.4 mph - N/A   Unknown
9:52 PM 66.0 °F 55.9 °F 70% 29.70 in - South 15.0 mph 21.9 mph N/A   Unknown
10:52 PM 66.0 °F 57.0 °F 73% 29.68 in - South 15.0 mph 21.9 mph N/A   Unknown
11:52 PM 64.9 °F 57.0 °F 75% 29.67 in - South 13.8 mph - N/A   Unknown